Tucson, AZ

2:45 PM MST on January 16, 2018 (GMT -0700)
Tucson International

Weather History for KTUS - August, 2012

Change the Weather History Date:

Friday, August 10, 2012

  Actual Average Record
Temperature  
Mean Temperature 94 °F 85 °F  
Max Temperature 108 °F 97 °F 110 °F (2003)
Min Temperature 80 °F 74 °F 62 °F (1925)
Degree Days  
Heating Degree Days 0 0  
Month to date heating degree days 0 0  
Since 1 June heating degree days 0 0  
Since 1 July heating degree days 0 0  
Cooling Degree Days 29 20  
Month to date cooling degree days 258 206  
Year to date cooling degree days 2278 1985  
Since 1 June cooling degree days 1601 1483  
Growing Degree Days 44 (Base 50)    
Moisture  
Dew Point 54 °F    
Average Humidity 33    
Maximum Humidity 51    
Minimum Humidity 14    
Precipitation  
Precipitation 0.00 in 0.08 in 1.23 in (1955)
Month to date precipitation 0.02 0.83  
Year to date precipitation 5.17 6.35  
Snow  
Snow 0.00 in - - ()
Month to date snowfall 0.0  
Snow Depth 0.00 in    
Sea Level Pressure  
Sea Level Pressure 29.74 in    
Wind  
Wind Speed 8 mph (SSE)    
Max Wind Speed 23 mph    
Max Gust Speed 33 mph    
Visibility 10 miles    
Events      
T = Trace of Precipitation, MM = Missing Value Source: NWS Daily Summary

Daily Weather History Graph

Daily Weather History Graph

Search for Another Location

Airport or City:

Trip Planner

Search our weather history database for the weather conditions in past years. The results will help you decide how hot, cold, wet, or windy it might be!

Date:

Astronomy

Aug. 10, 2012 Rise Set
Actual Time 5:45 AM MST 7:12 PM MST
Civil Twilight 5:19 AM MST 7:38 PM MST
Nautical Twilight 4:47 AM MST 8:09 PM MST
Astronomical Twilight 4:15 AM MST 8:41 PM MST
Moon No Moon Rise 1:50 PM MST (8/10)
Length of Visible Light 14h 19m
Length of Day
13h 27m
Last Quarter, 41% of the Moon is Illuminated
Aug 10
Last Quarter
Aug 17
New
Aug 24
First Quarter
Aug 31
Full
Sep 8
Last Quarter

Hourly Weather History & Observations

Time (MST) Temp. Heat Index Dew Point Humidity Pressure Visibility Wind Dir Wind Speed Gust Speed Precip Events Conditions
12:53 AM 84.9 °F 83.6 °F 55.0 °F 36% 29.77 in 10.0 mi SSE 5.8 mph - N/A   Clear
1:53 AM 80.1 °F 80.6 °F 57.9 °F 47% 29.77 in 10.0 mi SSW 5.8 mph - N/A   Clear
2:53 AM 81.0 °F 81.0 °F 57.0 °F 44% 29.77 in 10.0 mi South 4.6 mph - N/A   Clear
3:53 AM 82.9 °F 83.7 °F 62.1 °F 49% 29.78 in 10.0 mi South 15.0 mph - N/A   Clear
4:53 AM 81.0 °F 81.7 °F 61.0 °F 50% 29.78 in 10.0 mi SSE 10.4 mph - N/A   Clear
5:53 AM 80.1 °F 81.1 °F 61.0 °F 52% 29.81 in 10.0 mi South 13.8 mph - N/A   Clear
6:53 AM 82.0 °F 82.4 °F 60.1 °F 47% 29.83 in 10.0 mi South 3.5 mph - N/A   Clear
7:53 AM 84.9 °F 85.9 °F 63.0 °F 48% 29.85 in 10.0 mi South 5.8 mph - N/A   Clear
8:53 AM 88.0 °F 87.9 °F 61.0 °F 40% 29.84 in 10.0 mi Calm Calm - N/A   Clear
9:53 AM 91.9 °F 91.2 °F 59.0 °F 33% 29.82 in 10.0 mi Variable 3.5 mph - N/A   Clear
10:53 AM 99.0 °F - 52.0 °F 21% 29.78 in 10.0 mi East 5.8 mph - N/A   Clear
11:53 AM 102.9 °F - 46.9 °F 15% 29.75 in 10.0 mi East 12.7 mph 27.6 mph N/A   Clear
12:53 PM 105.1 °F - 46.0 °F 14% 29.73 in 10.0 mi East 13.8 mph 24.2 mph N/A   Clear
1:53 PM 106.0 °F - 46.0 °F 13% 29.70 in 10.0 mi ESE 16.1 mph 20.7 mph N/A   Clear
2:53 PM 106.0 °F - 46.9 °F 14% 29.68 in 10.0 mi ESE 16.1 mph 21.9 mph N/A   Partly Cloudy
3:53 PM 106.0 °F - 46.0 °F 13% 29.65 in 10.0 mi SSE 8.1 mph 24.2 mph N/A   Clear
4:53 PM 105.1 °F - 46.9 °F 14% 29.64 in 10.0 mi South 5.8 mph 18.4 mph N/A   Clear
5:53 PM 104.0 °F - 46.9 °F 15% 29.63 in 10.0 mi South 8.1 mph - N/A   Clear
6:53 PM 102.9 °F - 44.1 °F 14% 29.64 in 10.0 mi ESE 11.5 mph - N/A   Clear
7:53 PM 99.0 °F - 48.9 °F 18% 29.67 in 10.0 mi WNW 6.9 mph - N/A   Clear
8:53 PM 96.1 °F 93.5 °F 53.1 °F 23% 29.69 in 10.0 mi NW 3.5 mph - N/A   Clear
9:53 PM 95.0 °F 92.7 °F 54.0 °F 25% 29.71 in 10.0 mi NW 4.6 mph - N/A   Clear
10:53 PM 93.9 °F 91.7 °F 54.0 °F 26% 29.72 in 10.0 mi Calm Calm - N/A   Clear
11:53 PM 91.0 °F 89.7 °F 57.0 °F 32% 29.74 in 10.0 mi South 12.7 mph - N/A   Clear